Temp
16 16 15 15 15 14 14 14 13 13 12 12 12 12 12 13 14 15 14 15 16 16 15 15 16 16 16 16 16 15 15 15 15 14 14 14 14 14 14 13 13 13 12 12 12 13 13 13 13 13 13 13 13 13 14 13 13 13 12 12 12 12 12 12 12 12 12 12 12 12 12 12 12 12 12 12 12 12 12 12 12 13 13 13 13
16 16 15 15 14 14 14 14 13 13 13 13 12 12 12 13 14 15 15 15 16 15 15 15 16 16 16 16 16 15 15 15 14 14 14 14 14 13 13 13 12 12 12 12 12 13 13 13 13 13 13 13 13 13 14 13 12 12 12 12 12 12 12 12 12 12 11 11 11 12 12 12 12 11 11 11 11 12 12 12 12 12 12 12 12
16 16 15 14 14 14 14 14 13 13 13 13 13 12 13 13 14 15 15 16 15 15 15 15 15 16 16 16 15 15 15 14 14 14 14 14 14 13 13 13 12 12 12 12 12 12 12 13 13 13 13 14 13 13 14 13 13 12 12 12 12 11 11 11 11 11 11 11 11 11 11 11 11 11 11 11 11 11 11 11 11 11 11 11 11
16 15 15 14 14 14 14 14 14 13 13 13 13 13 13 13 13 15 15 15 15 14 14 14 15 15 15 15 15 15 14 14 14 13 13 13 13 13 13 12 12 11 11 12 12 12 12 12 12 13 13 14 14 13 13 13 13 12 12 12 12 11 11 11 11 11 11 11 11 11 11 11 11 11 11 10 10 10 10 11 11 11 11 11 11
16 15 15 14 14 14 14 14 14 13 13 13 13 13 12 13 13 14 14 14 14 13 13 13 14 15 15 14 14 14 14 14 13 13 13 12 12 12 12 12 11 11 11 11 12 12 12 12 12 12 13 13 14 13 13 13 13 12 12 12 12 11 11 11 11 11 11 11 11 11 10 10 10 10 10 10 10 10 10 10 10 10 10 10 10
15 15 15 14 14 14 14 14 14 13 13 13 13 13 12 13 13 13 13 13 13 13 13 13 13 14 14 14 14 13 13 12 12 12 12 11 10 10 10 11 11 10 10 11 11 11 12 12 12 12 12 12 13 13 13 13 12 12 12 11 11 11 11 11 10 10 10 10 10 10 10 10 10 10 10 9 10 10 10 10 10 10 10 10 10
15 15 15 15 14 14 14 14 14 13 13 13 13 13 13 13 13 13 13 13 13 13 13 13 13 14 14 13 13 12 12 11 11 11 11 10 10 10 9 9 10 10 10 10 10 11 11 11 12 12 12 12 12 12 12 12 12 12 11 11 11 11 11 10 10 10 10 10 10 9 9 9 9 9 9 9 9 9 9 9 9 9 10 10 10
15 15 15 15 14 14 14 14 14 13 13 13 13 12 13 13 13 13 13 12 12 12 12 13 13 13 13 12 12 12 11 11 10 10 10 10 10 10 9 9 10 10 9 10 10 10 10 11 11 11 11 11 11 11 12 12 12 11 11 11 10 10 10 10 10 10 9 9 9 9 9 9 9 9 8 8 8 8 9 9 9 9 9 9 9
15 15 15 15 14 14 14 14 13 13 13 13 12 12 12 13 13 13 13 13 12 12 12 12 12 12 12 11 11 11 10 10 10 10 10 9 9 9 9 9 10 9 9 10 10 9 10 10 10 10 11 11 11 11 11 11 11 11 11 11 10 10 10 9 9 9 9 8 8 8 8 8 8 8 8 8 8 8 8 8 9 9 9 9 9
15 15 14 14 14 14 14 14 13 13 13 13 12 12 12 12 12 12 13 13 13 13 12 12 12 11 11 11 11 10 10 10 9 9 9 9 9 9 9 9 9 9 9 9 10 9 9 9 9 10 10 10 10 10 10 11 11 11 11 10 10 10 9 9 8 8 8 8 8 7 7 7 8 8 8 8 8 8 8 9 9 9 9 9 9
15 14 14 14 14 14 13 13 13 13 13 12 12 12 12 12 12 12 12 12 13 13 12 12 11 11 11 10 10 10 9 9 9 9 9 9 9 9 9 9 9 9 9 9 9 9 9 9 9 9 9 9 10 10 10 10 10 10 11 10 10 9 9 8 8 7 7 7 7 7 7 7 8 8 8 8 8 8 8 8 8 8 8 8 8
14 14 14 14 13 13 13 13 13 13 12 12 12 12 12 12 12 12 12 12 12 12 12 12 11 10 10 9 9 9 9 9 9 9 8 8 8 8 8 8 9 9 9 9 9 9 9 9 9 9 9 9 9 9 10 10 10 10 10 11 10 9 8 8 7 7 7 7 7 7 7 7 7 7 7 7 7 7 7 7 7 7 7 7 8
13 14 13 13 13 13 13 13 13 12 12 12 12 12 12 12 12 12 12 12 12 12 12 11 10 9 8 8 8 8 8 8 8 8 8 8 8 8 8 8 8 8 8 8 9 9 9 9 9 9 9 9 9 9 9 9 10 10 10 10 10 9 8 8 7 7 6 6 7 6 7 7 7 6 6 6 6 6 7 7 7 7 7 7 7
13 13 13 13 13 13 13 13 12 12 12 12 12 12 12 12 12 12 12 12 12 11 11 11 10 9 8 7 7 7 8 8 8 8 7 8 8 7 7 7 8 8 8 8 8 8 8 8 8 9 9 8 9 9 9 9 9 10 10 10 9 9 8 8 7 6 6 6 6 6 6 6 6 6 6 6 6 6 7 7 7 7 7 7 7
12 12 12 13 12 12 12 12 12 12 12 12 12 12 11 11 12 12 12 11 11 11 11 11 10 9 9 8 8 7 7 7 7 8 7 7 7 7 7 7 7 7 7 8 8 8 8 8 8 8 8 8 9 9 8 8 9 9 9 9 9 8 8 7 7 6 6 6 6 6 6 5 5 5 5 6 6 6 6 6 7 7 7 7 7
11 11 12 12 12 12 12 12 12 12 12 12 11 11 11 11 11 12 11 11 11 11 11 11 11 11 10 9 8 8 10 8 6 7 7 7 7 7 7 7 7 7 7 7 8 8 8 8 8 8 8 8 8 8 8 8 8 9 9 9 8 8 7 6 6 6 5 5 5 5 5 5 5 5 5 5 6 6 6 6 6 6 6 6 7
10 10 11 11 11 11 11 11 11 11 11 11 11 11 11 11 11 11 11 11 11 10 10 10 11 12 12 11 10 10 12 9 6 7 7 7 7 6 7 7 6 7 7 7 7 7 7 7 8 8 7 7 8 8 8 8 8 8 8 8 8 7 7 6 6 5 5 5 5 5 5 5 4 5 5 5 5 6 6 6 6 6 6 6 6
10 10 10 10 10 11 11 11 11 11 11 11 11 11 11 11 11 11 11 11 11 10 10 10 10 11 12 13 12 12 11 9 8 8 6 6 7 6 6 6 6 6 6 6 6 6 7 7 7 7 7 7 7 8 8 8 8 8 8 8 7 7 7 6 6 5 5 5 5 5 5 4 4 4 4 5 5 5 6 5 5 5 6 6 6
9 9 9 9 9 10 10 10 10 10 10 10 11 11 11 11 11 11 11 11 11 10 10 10 10 10 11 13 12 12 12 10 9 9 8 7 6 6 6 6 6 6 6 6 6 6 6 6 7 7 7 6 6 7 8 8 8 8 8 7 7 7 7 7 6 5 5 4 4 4 4 4 4 4 4 4 4 5 5 5 5 5 5 5 5
9 9 9 9 9 9 9 9 10 10 10 10 10 10 10 11 10 11 11 11 11 10 10 10 9 10 11 12 11 11 12 12 11 10 10 9 6 5 6 6 5 6 6 6 6 6 6 6 7 7 6 6 5 6 7 7 7 7 7 7 7 7 7 7 6 6 5 5 4 4 4 4 3 3 3 4 4 4 5 5 5 5 5 5 5
9 9 9 8 8 8 9 9 9 9 9 9 10 10 10 10 10 10 10 10 10 10 10 10 10 10 10 11 10 10 11 11 11 11 10 10 8 5 4 5 5 5 6 5 5 6 6 6 6 6 6 5 5 6 6 7 7 7 6 6 7 7 7 6 6 6 5 5 5 4 3 3 3 3 3 4 4 4 4 4 4 4 5 5 4
9 8 8 8 8 8 8 8 8 8 9 9 9 9 9 10 10 10 10 10 10 10 10 10 10 10 11 10 10 9 9 9 10 10 10 10 9 5 4 4 4 5 5 5 5 5 5 5 6 6 6 5 5 5 6 6 6 6 6 6 6 6 6 6 6 6 5 5 5 5 3 3 3 2 2 3 3 4 4 4 4 4 4 4 4
9 8 8 8 8 8 8 8 8 8 8 8 8 9 9 9 10 10 10 10 10 10 10 10 10 10 10 10 10 10 10 9 10 11 10 9 10 7 4 4 4 5 6 5 5 5 5 5 5 5 5 5 4 5 5 6 6 6 6 6 6 6 6 6 6 6 6 6 5 5 5 5 4 3 3 3 3 3 3 3 3 4 4 4 4
9 8 8 8 8 8 8 7 7 7 7 8 8 8 8 9 9 9 9 9 10 10 10 10 10 10 10 10 10 10 11 11 11 12 11 10 11 7 4 4 5 5 6 5 4 5 5 5 5 5 5 5 4 4 4 5 5 5 5 6 6 6 6 5 5 5 5 6 5 5 6 6 6 5 4 4 3 3 3 3 3 3 3 3 3
8 8 8 8 8 7 7 7 7 7 7 7 7 7 8 8 8 9 9 9 9 9 9 10 10 10 10 10 10 10 10 11 11 12 12 11 11 8 5 5 5 5 5 5 4 4 4 4 5 4 4 5 4 4 4 4 5 5 5 5 5 5 5 5 5 5 5 6 6 6 6 6 6 6 6 5 5 4 3 3 3 3 3 2 2
7 7 7 7 7 7 7 7 7 7 7 7 7 7 7 7 8 8 8 8 9 9 9 9 10 10 10 10 10 10 10 11 11 11 11 11 11 9 6 5 6 4 5 5 4 4 4 4 4 4 4 4 4 4 4 4 5 5 5 5 5 5 5 5 5 5 5 6 6 6 6 7 7 7 7 6 6 5 4 3 2 2 2 2 2
6 6 7 7 7 7 7 7 6 6 6 6 6 6 7 7 7 7 8 8 8 8 8 9 9 9 10 10 10 10 10 11 11 11 11 11 11 10 8 7 6 5 4 4 3 3 4 4 3 3 4 4 4 3 4 4 4 5 5 5 5 5 5 5 5 5 5 6 6 6 6 6 6 6 7 7 6 6 4 3 2 2 2 2 2
5 5 6 6 6 6 6 6 6 6 6 6 6 6 6 6 6 7 7 7 7 8 8 8 8 9 9 9 10 10 10 10 11 11 11 11 11 12 10 8 8 6 4 3 2 3 4 4 3 3 3 4 4 3 3 4 4 5 5 5 5 5 5 5 5 5 6 6 6 6 6 6 6 6 6 6 6 5 4 4 3 3 3 3 2
4 5 5 5 5 5 5 5 5 5 5 5 5 5 6 6 6 6 6 6 7 7 7 7 8 8 8 9 9 9 10 10 10 11 11 11 11 12 11 10 10 9 6 4 3 2 3 4 3 4 3 3 3 3 3 3 4 4 5 5 5 5 5 5 5 6 6 6 6 6 6 6 6 6 6 5 5 5 4 3 3 3 3 3 3
3 4 4 4 4 4 4 5 5 5 5 5 5 5 5 5 5 5 6 6 6 6 6 7 7 7 7 8 8 8 9 9 10 10 10 11 11 11 11 11 11 10 7 6 6 4 3 4 4 5 4 3 3 3 3 3 3 4 5 5 6 6 5 5 5 6 6 6 6 6 6 6 6 6 6 6 5 5 4 3 3 3 3 3 3
3 3 3 3 3 3 4 4 4 4 4 4 4 4 4 5 5 5 5 5 5 5 6 6 6 6 7 7 7 7 8 8 9 9 10 10 11 11 11 11 11 11 8 7 8 7 6 5 5 5 5 4 3 3 2 3 3 3 4 5 5 5 5 5 5 6 6 6 6 5 5 6 6 6 6 6 6 5 4 4 4 4 4 4 4
4 4 4 3 3 3 3 3 3 4 4 4 4 4 4 4 4 4 4 5 5 5 5 5 5 6 6 6 6 7 7 7 8 8 9 9 10 10 11 10 10 11 10 8 8 8 7 8 7 6 6 5 3 3 2 2 2 2 3 4 5 5 5 6 5 5 6 6 5 5 5 5 5 6 6 6 6 5 5 5 5 5 4 4 4
4 4 4 4 4 3 3 3 3 3 3 3 3 4 4 4 4 4 4 4 4 4 4 5 5 5 5 5 6 6 6 6 7 7 8 8 9 9 10 10 9 10 10 8 8 7 7 7 7 7 6 5 3 3 3 2 2 1 2 3 4 4 5 5 5 5 5 5 5 4 4 4 4 5 5 5 5 5 5 5 5 5 5 4 3
3 4 4 4 4 4 4 3 3 3 3 3 3 3 3 3 3 4 4 4 4 4 4 4 4 4 5 5 5 5 5 6 6 6 7 7 8 8 9 9 9 9 10 9 8 7 5 5 5 5 5 4 3 3 3 3 2 1 1 2 3 3 4 5 5 5 5 5 4 4 3 3 3 4 4 4 4 4 3 3 4 3 3 3 3
3 3 3 3 3 3 4 4 3 3 3 2 2 3 3 3 3 3 3 3 3 3 3 4 4 4 4 4 4 5 5 5 5 6 6 6 6 7 7 8 8 8 9 9 9 7 4 3 4 4 4 3 3 4 3 3 2 1 1 2 3 3 3 4 4 4 4 4 3 3 3 3 3 3 3 3 2 2 2 2 2 2 2 2 2
2 2 3 3 3 3 3 3 3 3 3 3 2 2 2 3 3 3 3 3 3 3 3 3 3 3 4 4 4 4 4 4 5 5 5 5 6 6 6 7 7 8 8 9 9 8 6 3 3 3 4 3 3 3 3 2 1 1 1 1 2 3 3 3 4 4 4 4 3 2 3 3 3 3 3 3 2 1 1 1 0 0 0 0 1
-0 0 1 2 2 2 3 3 3 3 3 3 3 3 2 2 2 2 3 3 3 3 3 3 3 3 3 3 3 3 4 4 4 4 4 5 5 5 5 6 6 6 7 8 8 8 7 4 2 2 3 2 2 2 2 1 0 -0 -0 0 1 2 3 3 3 3 3 3 3 3 3 2 2 3 3 3 2 1 1 0 -0 -1 -1 -0 0
-1 -1 -1 -0 0 1 2 2 2 2 3 3 3 3 3 3 2 2 2 2 2 2 2 2 2 2 3 3 3 3 3 3 4 4 4 4 4 5 5 5 5 6 6 6 7 7 7 5 3 2 1 1 1 0 1 1 0 -1 -1 -1 -1 1 1 1 2 2 3 3 3 3 3 2 2 2 3 3 2 1 1 0 -1 -1 -1 -0 1
-1 -1 -1 -1 -1 -1 -0 1 1 2 2 2 2 3 3 3 3 2 2 2 2 2 2 2 2 2 2 2 2 3 3 3 3 3 3 4 4 4 4 5 5 5 5 6 6 6 6 5 3 2 1 0 0 -0 -0 0 -0 -1 -2 -2 -3 -2 -1 -0 1 2 2 3 3 3 2 2 2 2 2 3 2 1 -0 -0 -1 -1 -1 0 1
-1 -1 -1 -1 -1 -1 -1 -1 -0 0 1 1 1 2 2 2 2 2 2 2 1 1 1 1 1 1 1 2 2 2 2 2 3 3 3 3 3 4 4 4 4 4 5 5 5 5 5 4 2 1 0 -0 -1 -1 -1 -2 -2 -2 -2 -2 -2 -2 -2 -1 0 1 2 3 3 2 2 1 1 1 1 2 1 0 -0 -1 -1 -1 -0 0 0
-1 -1 -1 -2 -2 -2 -2 -2 -1 -1 -1 -0 1 1 1 1 2 2 2 2 1 1 1 1 1 1 1 1 1 1 2 2 2 2 2 3 3 3 3 3 4 4 4 4 4 4 5 4 2 1 -0 -1 -1 -2 -3 -2 -2 -2 -1 -1 -1 -2 -2 -2 -1 0 1 2 2 1 1 1 1 1 1 1 1 0 -0 -0 -0 -0 -0 -0 -0
-2 -2 -2 -2 -2 -2 -2 -2 -2 -2 -2 -1 -1 0 0 1 1 1 1 1 1 1 1 1 0 0 0 0 1 1 1 1 1 2 2 2 2 3 3 3 3 4 4 4 4 4 4 3 2 0 -1 -1 -1 -2 -2 -2 -1 -1 -1 -2 -2 -2 -2 -3 -3 -2 -1 -0 -0 -0 0 0 0 0 1 1 1 1 -0 -0 -0 -0 -1 -1 -0
-2 -2 -3 -3 -3 -3 -3 -3 -3 -2 -2 -2 -1 -1 -0 -0 0 0 0 1 1 1 1 0 0 0 0 0 0 0 0 1 1 1 1 2 2 2 2 3 3 3 3 3 3 3 3 3 3 1 -0 0 -0 -1 -1 -1 -1 -1 -1 -1 -1 -2 -3 -3 -3 -3 -2 -1 -1 -1 -1 -0 -0 -0 1 1 1 1 -0 -0 -0 -1 -1 -1 -1
-3 -3 -3 -3 -3 -3 -3 -3 -3 -3 -3 -2 -2 -2 -1 -1 -1 -0 -0 -0 -0 -0 0 0 0 0 0 0 0 0 0 0 0 1 1 1 1 2 2 2 2 3 3 3 3 3 3 3 3 2 1 1 1 -0 -1 -1 -1 -1 -1 -1 -1 -1 -2 -2 -2 -2 -0 -0 -2 -3 -2 -1 -1 -1 0 1 1 0 -0 -0 -1 -1 -1 -1 -1
-3 -4 -4 -4 -4 -4 -4 -4 -4 -3 -3 -3 -3 -3 -2 -2 -2 -1 -1 -1 -1 -1 -1 -0 -0 -0 -0 -0 -0 -0 -0 -0 -0 0 0 0 1 1 1 1 2 2 2 3 3 3 3 3 3 3 3 2 2 1 0 -0 -1 -1 -1 -1 -1 -1 -1 -1 -0 1 1 1 -2 -3 -3 -2 -2 -1 -1 0 0 -0 -0 -0 -1 -1 -1 -1 -1
-5 -5 -5 -6 -6 -5 -5 -5 -5 -4 -4 -3 -4 -4 -3 -3 -2 -2 -2 -1 -1 -1 -1 -1 -1 -0 -0 -0 -0 -0 0 -0 -0 -0 -0 0 0 0 0 0 1 1 2 2 2 3 3 3 3 3 4 3 3 2 1 0 0 1 0 -0 -1 -0 -0 0 1 1 1 1 1 -2 -3 -3 -2 -2 -2 -0 -0 -1 -0 -0 -1 -1 -2 -2 -2
-6 -6 -7 -7 -7 -7 -6 -6 -6 -6 -4 -4 -4 -4 -4 -4 -3 -3 -2 -2 -2 -2 -2 -1 -1 -1 -1 -0 -1 -0 -0 -0 -0 -0 -0 -0 -0 -0 -0 -0 -0 0 0 1 1 2 2 3 3 3 4 4 3 3 2 1 2 2 3 2 1 1 1 0 0 -0 -1 0 1 -1 -3 -4 -3 -3 -3 -2 -1 -1 -1 -1 -2 -2 -3 -3 -2
-7 -7 -8 -8 -8 -8 -8 -7 -7 -7 -6 -5 -4 -5 -5 -4 -4 -3 -3 -3 -2 -2 -2 -2 -2 -1 -1 -1 -1 -1 -0 -0 -0 0 -0 -0 -0 -1 -1 -1 -1 -1 -1 -0 0 1 1 2 2 3 3 3 3 3 3 2 2 2 2 1 1 0 -1 -2 -3 -3 -2 -2 -1 -1 -2 -4 -4 -4 -4 -3 -3 -3 -2 -3 -3 -4 -4 -4 -3
-8 -8 -9 -9 -9 -9 -9 -8 -8 -8 -7 -6 -6 -6 -6 -6 -5 -5 -4 -3 -3 -3 -3 -2 -2 -2 -2 -1 -1 -1 -1 -1 -0 0 -0 -1 -1 -1 -1 -1 -2 -2 -1 -1 -1 -0 0 1 1 2 2 2 3 3 3 3 2 2 1 -0 -1 -1 -2 -2 -4 -5 -4 -4 -3 -2 -2 -4 -4 -4 -4 -4 -4 -4 -4 -4 -4 -4 -4 -4 -3
-10 -10 -10 -10 -10 -10 -10 -9 -9 -9 -8 -8 -8 -7 -7 -7 -6 -6 -5 -5 -4 -3 -3 -3 -3 -2 -2 -1 -1 -1 -1 -1 -0 -0 -0 -1 -1 -1 -1 -1 -2 -2 -2 -2 -1 -1 -1 -0 0 1 1 1 1 2 2 2 2 2 1 0 -0 -1 -2 -2 -3 -5 -5 -5 -4 -3 -3 -4 -4 -4 -5 -5 -6 -5 -5 -5 -5 -5 -4 -4 -3
-11 -11 -11 -11 -11 -11 -10 -10 -10 -10 -9 -9 -9 -9 -8 -8 -8 -7 -7 -6 -5 -5 -4 -4 -3 -3 -2 -2 -1 -1 -1 -1 -1 -0 -0 -1 -1 -1 -1 -1 -2 -2 -2 -2 -2 -2 -2 -1 -1 -0 -0 0 0 1 1 1 2 2 2 2 1 -1 -1 -1 -3 -5 -6 -6 -5 -4 -4 -5 -5 -5 -5 -6 -6 -6 -5 -5 -5 -5 -4 -4 -3
Height
808 809 811 812 813 814 815 817 818 819 821 823 823 824 825 826 827 829 830 831 832 833 834 834 835 835 836 836 836 837 837 837 838 838 838 838 839 839 839 839 840 840 840 841 842 842 843 843 843 844 844 845 845 845 846 846 846 847 848 848 848 848 848 848 848 848 848 848 848 848 848 848 848 847 847 847 847 847 846 846 846 846 846 846 846
806 807 809 810 812 813 814 815 817 818 819 821 822 823 824 825 826 827 828 829 831 832 833 833 834 834 835 835 836 836 836 837 837 837 837 837 838 838 838 838 839 839 840 840 841 842 842 843 843 843 844 844 845 845 846 846 846 847 848 848 848 848 848 848 848 848 848 848 848 848 848 848 848 848 847 847 847 847 847 846 846 846 846 846 846
804 805 807 809 811 812 813 814 816 817 818 820 821 822 823 824 825 826 827 829 830 831 832 832 833 833 834 835 835 835 836 836 836 836 836 837 837 837 838 838 838 839 839 839 840 840 841 841 842 842 843 844 844 845 846 846 846 847 847 848 848 848 848 848 848 848 848 848 849 848 848 848 848 848 848 848 848 847 847 847 846 846 846 846 846
802 803 805 808 809 810 812 813 814 816 817 819 820 821 822 824 824 826 827 828 829 830 831 832 832 833 833 834 834 835 835 835 836 836 836 836 836 837 837 837 838 838 839 839 839 839 839 840 840 841 842 843 844 844 845 845 846 847 847 847 848 848 848 848 848 848 848 849 849 849 849 849 848 848 848 848 848 848 847 847 846 846 846 846 846
800 801 804 806 808 809 810 811 813 814 816 818 819 821 822 823 824 825 826 827 828 829 831 831 832 832 833 834 834 834 834 834 835 835 835 835 835 836 836 837 837 838 838 839 839 839 839 839 840 841 841 842 843 844 845 845 846 846 847 847 847 848 848 848 848 848 849 849 849 849 849 849 849 849 848 848 848 848 847 847 847 846 846 845 845
797 799 801 803 805 807 808 809 811 813 814 816 818 819 820 821 822 823 825 826 827 828 829 829 830 831 832 833 833 834 834 834 834 835 835 835 835 835 835 836 836 837 838 838 839 839 839 839 839 839 840 840 842 843 844 845 845 846 846 847 847 847 847 848 848 848 848 849 849 849 849 849 849 849 848 848 848 848 848 847 847 846 846 845 845
796 797 799 801 802 803 805 807 808 810 812 814 815 817 818 819 820 821 823 824 825 827 828 828 829 830 831 832 832 833 834 834 834 835 835 835 835 835 835 835 835 836 837 837 838 838 839 839 839 838 839 840 841 842 843 844 845 845 846 846 847 847 847 847 848 848 848 848 849 849 849 849 849 849 849 848 848 848 848 847 847 846 846 845 845
795 796 797 798 799 800 802 804 806 807 809 811 813 815 816 817 818 820 821 822 824 825 826 827 827 828 829 831 831 832 833 834 834 834 835 835 835 834 834 834 834 835 835 836 837 837 838 839 839 838 839 840 840 842 843 844 845 845 846 846 846 847 847 847 847 848 848 848 848 848 848 848 848 848 848 848 848 848 847 847 846 846 845 845 844
794 794 796 797 798 799 800 802 804 805 806 808 810 812 814 815 817 818 819 821 822 823 825 826 826 827 828 829 830 831 832 833 833 834 834 834 834 834 834 833 834 834 833 834 835 836 837 838 838 839 839 839 840 841 842 843 844 844 845 845 846 846 846 847 847 847 847 847 847 847 847 848 848 848 847 847 847 847 847 846 846 845 845 844 844
793 794 795 796 797 798 799 801 802 803 805 806 808 810 811 813 815 816 818 819 820 821 823 824 825 826 827 828 829 830 831 831 832 833 833 833 833 833 833 833 833 833 833 833 834 835 836 837 837 838 838 839 839 840 841 842 843 844 844 845 845 845 846 846 846 846 847 847 846 847 847 847 847 847 847 847 847 847 846 846 846 845 845 845 844
793 793 794 795 796 798 799 800 801 802 803 804 806 808 809 811 812 814 816 817 818 819 821 822 824 825 826 827 828 829 829 830 831 831 832 831 831 832 832 832 833 833 833 833 833 834 834 835 836 837 838 838 839 840 840 841 841 843 844 844 845 845 845 845 845 845 846 846 846 846 846 846 846 846 846 846 846 846 845 845 845 845 844 844 844
792 792 793 794 795 796 797 798 799 801 802 803 804 806 807 808 810 812 813 815 817 818 819 820 822 824 826 826 827 828 828 829 829 830 830 830 830 831 831 831 832 832 832 832 833 833 833 833 834 836 836 837 838 839 840 840 841 841 843 844 844 844 844 844 844 844 844 845 845 845 845 845 845 845 845 845 844 844 844 844 844 844 844 843 843
791 791 792 792 793 794 794 795 797 798 800 801 802 804 806 807 809 810 811 812 814 815 816 818 820 823 825 826 826 827 827 828 828 829 829 829 829 830 830 830 830 831 831 831 832 832 832 832 833 834 835 836 836 837 838 839 840 841 842 843 843 844 844 844 844 843 843 844 844 844 844 844 844 844 844 844 843 843 843 843 843 843 843 843 843
789 789 790 791 791 792 792 792 793 794 796 798 800 802 804 806 807 809 810 810 811 812 812 814 817 819 822 825 827 827 827 827 827 828 828 828 829 829 829 829 829 830 830 830 831 831 831 831 831 833 834 834 834 836 837 838 839 840 841 841 842 843 843 843 843 843 842 842 843 843 843 843 843 843 843 843 843 843 843 843 842 842 842 842 842
788 789 789 789 790 790 790 791 791 792 793 795 796 799 801 803 805 806 808 809 810 810 810 811 813 817 821 823 824 826 826 826 826 825 826 827 827 828 828 828 828 828 829 829 830 830 830 830 830 831 832 832 832 834 835 836 837 838 839 839 840 841 842 843 842 842 842 842 842 842 842 842 842 842 842 842 842 842 842 842 842 842 841 841 841
788 788 788 788 788 788 789 789 789 790 791 792 793 794 796 798 800 802 805 807 809 809 809 810 810 813 817 819 822 824 821 821 823 824 825 826 826 826 826 827 827 827 827 828 828 829 829 829 829 829 830 830 830 832 833 834 835 836 837 838 838 839 840 841 841 841 841 841 841 841 841 842 842 842 841 841 841 841 841 841 841 840 840 840 840
787 787 787 787 788 788 788 787 787 788 789 790 791 792 793 794 796 797 799 801 803 805 807 809 808 808 811 813 817 818 815 815 819 822 823 823 824 825 825 825 825 826 826 826 827 827 828 828 828 828 828 828 828 829 831 832 833 834 835 836 836 837 838 839 839 839 840 840 840 840 841 841 841 841 841 841 840 840 840 840 839 839 839 839 839
785 785 786 786 787 787 787 787 787 787 787 789 789 791 791 792 793 794 795 796 798 801 802 804 806 807 807 807 808 808 809 812 817 819 822 822 823 823 823 824 824 825 825 825 826 826 827 827 828 828 828 827 826 827 828 829 830 831 832 833 834 835 836 837 837 838 838 838 839 839 840 839 839 839 839 839 839 839 839 838 838 838 838 838 838
784 784 784 784 785 786 786 786 786 786 787 787 788 789 789 790 791 792 792 794 795 796 797 799 802 803 804 803 803 804 804 807 811 814 818 820 821 822 822 822 823 823 824 824 824 825 825 826 827 827 827 827 826 826 826 827 828 829 830 831 832 833 835 835 836 836 836 836 837 838 838 838 838 838 838 838 838 838 838 837 837 837 837 837 837
784 784 784 784 784 784 785 785 785 786 786 786 786 787 788 788 789 790 790 791 791 792 793 795 796 797 799 800 801 802 802 802 804 806 809 814 817 819 819 820 821 821 821 821 821 822 823 824 825 826 826 826 825 825 825 825 826 827 828 829 830 831 833 833 834 834 834 835 835 836 837 837 836 836 836 836 836 836 836 836 836 836 836 836 836
784 784 784 783 783 783 783 783 783 784 784 784 785 786 787 787 787 788 788 789 789 790 790 790 790 792 795 797 798 800 801 801 801 801 803 806 811 815 815 817 819 817 817 819 819 820 820 821 823 824 825 825 824 824 823 824 824 825 826 827 828 829 831 832 832 832 833 833 833 834 834 834 834 834 834 835 835 835 835 835 834 835 835 835 835
783 784 784 783 783 782 782 782 782 782 782 783 783 784 785 785 786 786 787 787 788 788 788 787 787 788 790 792 794 796 798 799 798 799 799 800 803 808 809 810 812 811 813 815 816 817 818 819 820 821 822 823 822 822 822 821 821 822 823 824 826 827 829 830 830 831 831 832 832 832 832 832 832 832 832 833 833 833 833 833 833 833 834 834 834
783 783 783 783 783 782 781 781 781 780 781 781 781 782 782 783 784 784 784 785 786 787 787 787 786 787 787 788 788 789 790 791 792 794 795 796 798 802 804 804 805 806 807 809 811 814 815 816 817 818 820 820 820 820 820 819 820 820 821 822 823 825 826 828 828 829 829 830 830 830 830 830 829 829 830 831 831 831 832 832 832 832 832 833 833
783 782 782 782 782 781 781 780 779 779 779 779 779 780 780 781 782 782 782 783 784 785 785 785 785 784 784 785 785 785 785 785 787 788 789 791 793 796 799 801 803 804 804 805 808 809 810 811 813 814 817 818 818 818 817 817 818 818 819 819 821 822 824 825 826 827 827 828 828 828 828 828 828 828 828 828 829 829 830 830 830 831 831 831 832
782 782 782 782 781 781 780 779 778 777 777 777 777 777 778 779 779 780 780 781 782 782 782 782 783 782 782 782 782 783 783 783 785 785 786 787 789 792 796 797 798 800 802 803 804 805 807 807 808 810 813 814 815 815 814 814 815 816 816 817 819 820 822 824 824 825 826 826 827 827 827 827 827 827 827 827 827 827 827 828 828 828 829 829 830
782 781 781 781 781 781 780 779 778 776 775 775 775 775 776 776 777 777 778 778 779 779 780 780 781 781 781 780 780 779 780 781 783 783 783 785 785 787 791 795 796 797 799 800 800 802 802 803 804 806 808 810 811 811 811 811 811 812 813 814 816 818 820 822 823 823 824 825 825 825 825 826 826 826 826 826 825 825 825 826 826 826 826 827 827
781 781 780 780 780 780 780 779 778 776 774 773 773 773 773 774 774 775 775 776 777 777 777 778 778 778 779 778 778 777 777 779 780 780 780 781 781 782 785 790 794 797 798 798 798 797 796 798 801 802 804 806 807 807 807 808 809 809 810 811 813 815 817 819 820 821 822 823 823 824 824 824 825 825 824 824 824 824 824 824 824 824 824 824 824
781 780 779 778 779 779 779 779 778 776 774 772 771 771 771 771 772 773 773 774 774 774 775 775 775 776 776 776 776 775 775 776 777 777 777 778 779 779 779 781 786 792 796 797 796 794 793 795 797 797 799 801 803 804 805 805 806 806 807 808 810 812 814 816 817 818 819 820 821 822 822 823 823 823 823 823 823 822 822 822 822 822 821 821 822
782 780 779 778 777 777 778 778 777 775 773 771 770 769 769 769 769 770 770 771 771 771 772 773 773 773 773 773 773 772 773 774 774 774 775 775 775 775 775 775 777 782 788 791 790 788 788 790 790 791 794 797 799 801 802 802 802 803 804 805 807 809 811 813 814 815 816 817 817 818 819 820 821 821 821 821 821 821 821 821 821 821 820 820 820
782 781 779 778 776 776 776 776 776 774 772 770 768 767 767 767 767 767 768 769 769 768 769 770 770 771 770 770 770 770 771 772 771 772 772 772 772 772 771 771 772 773 777 780 780 780 782 784 785 786 788 791 794 797 798 799 799 800 801 802 804 807 809 811 812 813 813 814 814 815 815 816 817 818 818 819 819 820 820 820 820 820 819 819 819
782 781 779 778 777 775 774 774 774 773 771 769 767 765 765 765 765 765 765 766 766 766 766 767 767 768 767 767 767 766 767 769 769 769 769 769 769 769 769 768 768 768 770 772 773 773 775 777 779 781 783 786 789 792 795 796 797 798 798 799 802 804 806 808 809 810 811 811 812 812 813 814 814 815 815 816 817 818 818 818 819 819 818 818 818
783 781 779 778 776 774 773 772 772 771 770 768 766 764 763 763 762 763 763 763 763 763 764 764 764 764 764 763 763 763 764 765 765 765 765 766 766 767 766 766 766 766 766 768 767 768 770 772 773 776 779 782 785 788 791 793 794 795 796 797 799 801 803 805 806 807 808 808 809 810 811 811 812 813 813 813 814 815 815 816 817 817 817 817 817
785 783 781 778 776 774 772 771 769 769 767 765 764 762 761 760 760 760 760 760 760 761 761 761 761 761 760 759 759 760 761 762 761 761 762 762 763 763 764 764 764 764 764 764 764 766 768 769 770 772 775 778 780 783 786 789 791 792 793 794 796 797 799 802 803 804 805 805 806 806 808 809 810 811 811 812 812 813 813 814 814 814 815 815 815
785 784 782 780 778 776 774 771 769 768 766 764 762 760 758 758 757 757 757 757 757 758 758 758 758 758 757 756 755 756 758 758 757 757 758 759 760 760 760 761 761 761 761 761 761 763 765 766 768 770 772 774 775 777 780 782 785 787 788 789 791 793 796 798 800 801 802 803 803 804 805 806 807 808 809 810 810 811 811 812 812 812 813 813 813
785 784 782 780 779 777 774 772 769 767 765 763 761 759 758 757 756 756 755 755 755 755 755 754 755 754 753 752 751 753 754 753 752 753 754 755 756 756 756 757 757 757 758 759 758 758 760 762 764 765 767 769 770 772 774 777 780 784 784 785 786 788 791 794 796 798 799 800 800 801 802 803 804 805 806 807 808 809 809 810 810 811 811 811 811
785 784 782 780 778 776 773 770 768 766 764 761 760 759 758 757 756 755 754 753 753 752 751 751 751 750 749 748 748 749 750 748 747 748 750 751 752 752 752 752 752 753 755 756 755 755 755 757 759 760 761 763 766 768 771 773 777 780 781 782 782 784 787 790 792 794 796 797 798 798 799 800 801 802 803 804 805 806 807 808 809 809 809 809 809
784 782 781 779 777 774 771 768 766 764 762 760 758 757 756 755 755 754 752 751 750 749 748 747 747 746 745 744 744 745 746 744 742 744 746 747 748 748 748 748 748 749 751 752 752 752 751 751 754 757 759 760 762 765 767 769 772 776 779 779 779 780 782 785 787 789 791 793 794 795 796 797 798 799 800 801 802 804 805 805 806 807 807 808 808
780 778 776 775 773 770 768 766 763 761 759 758 757 755 754 752 751 751 749 748 746 745 744 744 743 742 741 740 740 741 741 739 738 740 741 742 742 743 743 744 745 747 747 747 748 748 748 747 748 751 755 756 758 761 763 764 766 769 773 776 777 777 778 780 782 784 786 789 790 791 793 794 795 796 797 799 800 801 802 802 804 805 805 806 806
776 774 772 770 768 767 765 762 760 759 757 755 754 753 751 750 748 747 745 744 743 741 741 740 739 738 737 736 736 736 736 735 734 736 737 737 737 737 738 739 742 744 744 743 744 744 744 744 744 745 747 751 753 755 758 761 764 766 768 771 773 773 773 774 776 779 781 784 785 787 788 790 792 793 794 796 796 797 799 799 801 802 803 804 805
774 771 769 767 765 763 761 759 757 756 754 753 751 750 749 747 746 744 742 741 739 738 736 735 735 734 733 732 732 731 731 730 730 732 732 733 733 732 732 734 737 738 739 740 740 740 740 739 740 740 742 746 748 751 755 758 761 762 763 765 766 766 767 769 772 774 776 778 779 781 783 785 787 789 790 792 793 794 795 796 797 799 800 801 802
770 768 766 764 762 759 757 756 754 753 752 750 749 748 747 745 744 742 740 738 736 734 732 731 730 729 728 728 727 727 727 726 726 727 727 728 729 728 728 730 732 732 734 735 736 736 735 735 735 737 739 740 742 744 747 748 749 751 756 760 761 762 764 766 767 770 772 773 774 776 777 780 782 784 785 787 788 790 791 793 794 796 797 798 799
766 764 762 760 758 756 754 752 751 750 748 747 746 745 744 743 741 739 737 735 734 732 729 727 726 724 724 723 722 721 722 721 722 722 723 723 723 722 723 726 727 726 727 728 730 730 730 730 730 731 733 733 733 734 735 736 740 745 750 753 756 759 762 764 765 767 768 770 770 771 772 774 777 779 780 782 784 786 788 789 791 793 794 795 796
762 759 758 755 753 752 750 748 747 745 744 743 742 741 741 739 738 736 734 732 730 728 726 724 722 720 719 718 717 716 716 715 716 717 717 718 717 718 719 721 722 721 720 721 721 723 725 724 724 724 724 724 724 726 728 730 735 739 742 745 749 753 755 757 759 760 761 764 766 766 767 770 772 774 776 777 780 783 784 786 788 789 791 792 793
758 755 753 751 749 748 746 744 742 740 739 738 737 737 736 735 734 732 730 728 725 724 722 720 718 716 714 713 712 711 710 710 710 711 711 711 712 713 715 716 716 716 715 714 713 715 718 719 719 718 716 716 718 721 722 724 728 733 737 740 742 743 745 747 749 750 751 755 760 761 762 765 767 769 771 773 776 779 781 783 785 786 787 789 790
755 752 749 747 745 743 742 740 737 735 733 732 732 732 731 729 729 727 725 723 720 718 716 715 713 711 710 709 707 706 705 705 705 705 705 705 707 708 710 710 710 709 709 709 709 709 710 711 712 710 709 710 713 714 715 719 723 727 730 733 734 737 738 738 739 740 743 747 753 757 759 760 761 763 765 768 771 775 778 780 781 783 784 785 787
752 749 747 744 741 740 738 736 733 730 728 726 726 726 725 723 723 722 720 718 715 713 711 709 708 706 705 704 702 700 700 700 700 699 699 700 701 702 704 704 703 703 703 704 704 704 704 703 703 702 703 707 708 709 712 716 717 718 720 723 726 729 730 730 732 735 737 739 743 748 752 754 756 759 760 763 767 770 773 776 778 780 781 782 783
750 746 744 741 738 736 733 732 729 725 722 720 720 720 719 718 717 716 714 712 709 706 704 703 702 700 699 698 697 695 694 694 694 694 694 695 696 696 696 696 696 696 697 697 697 697 698 697 696 695 698 703 705 706 709 710 711 713 715 717 719 722 724 727 730 733 735 736 737 741 745 749 752 754 756 759 763 766 768 771 774 776 778 779 780
746 743 740 737 735 732 729 727 725 720 716 714 713 713 712 712 711 710 708 705 703 700 697 696 695 694 693 692 690 689 688 687 688 688 689 690 690 690 689 689 689 690 689 689 690 691 692 693 692 691 693 697 700 703 704 705 708 712 715 718 719 721 723 726 728 730 732 734 734 735 738 743 747 750 753 757 760 762 765 767 769 772 774 775 776
741 738 735 732 730 727 724 722 720 715 710 708 707 706 705 705 705 704 702 699 696 693 690 689 688 687 686 685 684 682 681 680 681 682 683 684 684 684 683 683 683 683 681 681 683 685 687 688 688 689 690 692 695 697 699 701 703 708 712 713 714 716 719 722 724 726 727 729 730 731 734 738 743 747 751 755 757 759 761 763 765 768 770 771 772
736 734 731 727 724 721 719 716 713 710 705 701 701 700 698 699 698 697 695 693 689 686 683 681 680 679 678 677 677 676 674 673 674 675 677 678 678 677 677 677 677 675 672 673 676 679 681 683 684 685 686 688 690 693 694 695 697 700 702 703 706 710 713 714 717 722 725 726 725 726 730 734 739 743 748 753 756 758 759 760 762 764 765 767 768
733 729 726 723 718 715 712 710 707 705 700 695 695 694 693 693 693 692 690 687 683 679 676 673 672 671 670 669 668 668 667 667 667 669 670 671 671 670 670 671 671 667 664 667 672 674 676 677 677 679 681 683 685 687 688 689 690 691 692 695 698 702 704 707 711 717 720 720 720 723 727 730 734 738 742 747 753 756 756 758 759 760 761 763 764
Wind_Speed
27 27 26 25 24 22 21 21 23 23 23 23 22 21 20 20 19 18 19 19 18 15 13 12 11 10 9 8 7 6 5 4 3 2 3 3 2 1 1 1 2 4 6 5 3 4 4 3 4 4 4 4 4 4 5 5 6 5 4 4 5 5 4 5 4 5 5 5 5 5 6 6 7 7 7 7 7 7 6 5 5 5 5 5 5
28 27 27 26 25 23 22 22 23 24 24 23 23 23 22 22 21 20 21 21 18 16 14 13 12 11 10 9 8 7 6 5 4 3 4 4 2 1 1 2 3 4 7 7 4 3 3 3 3 4 5 4 4 4 5 6 6 5 4 4 4 4 4 4 4 4 4 4 5 5 5 6 7 7 7 8 7 7 7 7 6 6 6 6 5
29 27 27 27 27 25 23 22 23 24 24 23 25 25 24 23 22 21 22 20 18 16 15 14 14 12 11 10 9 8 8 6 5 5 5 4 2 1 1 2 4 5 6 8 7 6 5 5 4 4 5 5 4 4 4 6 5 4 4 3 3 4 4 3 3 4 4 4 5 5 5 6 7 7 7 7 7 8 7 8 8 8 8 8 6
29 28 28 28 28 27 25 24 25 26 25 24 25 25 24 22 21 21 20 19 17 16 15 15 14 13 12 11 10 10 9 8 6 5 5 4 2 2 3 4 5 6 7 9 9 9 9 9 7 5 5 5 5 4 4 5 4 3 3 2 3 3 3 3 3 4 4 4 5 5 5 6 6 6 7 7 7 7 8 8 8 8 9 9 8
30 29 28 28 28 28 27 26 26 27 25 25 25 24 23 22 21 20 19 19 18 16 15 14 14 14 12 12 11 10 10 8 7 6 6 5 3 3 4 5 6 7 8 9 9 9 10 10 9 6 5 6 5 5 5 5 4 3 2 2 2 3 3 4 4 4 4 4 5 5 5 5 6 6 6 6 7 7 8 8 8 8 9 9 9
30 29 29 29 29 29 29 29 28 27 26 26 26 24 23 23 22 21 20 20 20 18 17 16 15 14 13 12 12 11 9 8 7 7 7 6 6 5 4 5 7 8 9 9 8 8 8 10 11 9 8 9 6 6 6 5 5 4 3 3 3 3 4 4 4 4 4 5 5 5 5 5 5 5 6 6 7 7 7 8 8 9 9 9 10
31 30 30 30 30 30 30 30 29 28 27 27 27 26 25 25 25 24 23 22 21 20 19 17 16 15 14 12 12 10 9 9 9 7 7 8 8 8 7 7 8 10 11 11 9 9 8 9 12 12 12 12 9 5 6 5 5 4 4 3 3 3 4 4 4 5 5 5 5 5 5 5 5 5 5 6 6 6 7 7 7 8 8 9 9
32 31 31 31 31 31 31 30 30 29 28 28 28 27 27 27 26 26 25 23 22 20 19 18 16 15 13 12 12 10 9 9 9 8 8 9 9 10 11 11 9 10 12 13 11 11 8 9 13 13 13 14 11 6 5 6 6 5 5 4 4 3 4 4 5 5 5 5 4 4 4 4 4 4 4 5 5 5 5 6 6 7 7 8 8
32 31 31 31 31 31 30 30 30 30 29 29 29 28 28 27 26 26 26 24 22 21 20 18 16 15 13 13 12 10 9 9 9 9 9 9 10 11 12 12 10 11 12 13 13 13 10 10 13 12 11 12 12 10 9 8 7 7 6 5 5 5 5 5 5 4 4 4 4 4 3 3 3 4 4 4 4 5 5 6 6 7 8 8 8
32 31 30 30 30 29 29 29 30 30 29 29 29 28 28 27 26 26 25 24 23 22 21 19 17 16 14 13 13 11 9 10 9 9 10 11 11 12 12 12 12 13 13 13 13 13 13 13 13 12 11 11 12 13 13 12 10 8 8 7 7 7 6 5 5 5 4 3 3 3 2 2 3 3 3 4 4 4 5 5 6 6 7 7 7
31 31 29 29 29 28 27 27 29 29 29 29 28 27 27 27 27 26 25 24 23 23 22 20 18 16 15 13 12 12 11 11 10 9 10 12 12 12 12 12 13 14 15 14 13 13 14 15 15 14 13 12 12 13 14 15 14 11 9 9 9 8 7 6 5 4 4 2 2 2 2 2 2 3 3 3 3 3 4 4 4 5 5 5 6
29 30 29 28 28 28 27 26 27 28 29 29 28 28 28 28 27 27 26 23 22 23 23 22 19 14 13 13 12 12 12 12 11 10 11 13 13 13 13 13 14 15 15 16 14 13 14 15 16 15 15 14 14 13 14 15 15 15 12 11 11 9 7 6 5 4 4 3 2 2 2 3 2 2 2 2 2 3 3 3 4 4 4 5 5
25 29 30 28 28 28 27 27 27 27 29 29 28 28 28 28 27 27 27 25 22 23 25 24 20 14 9 9 10 11 11 11 12 13 14 15 14 14 14 14 14 15 16 16 15 14 14 14 15 15 15 15 15 15 15 15 16 16 15 12 12 10 8 6 5 4 5 5 4 3 3 3 2 1 1 1 2 2 3 3 3 4 4 5 5
22 27 29 29 29 29 28 28 28 28 28 28 28 27 27 27 27 26 27 27 25 26 29 26 19 15 11 6 4 6 8 10 13 14 15 15 14 14 14 15 15 15 16 16 16 15 15 15 15 15 14 15 16 16 16 16 16 18 17 15 13 11 8 7 6 5 5 5 5 4 4 3 2 1 1 1 2 2 2 3 3 4 4 5 5
19 22 26 28 29 30 29 29 29 29 28 29 28 28 28 28 29 28 27 26 24 26 31 29 21 18 12 5 3 3 4 9 14 15 15 15 14 15 15 16 16 15 16 17 16 16 16 16 16 15 14 15 17 16 16 17 18 19 20 20 17 12 9 8 7 6 5 5 5 4 4 3 2 1 1 2 2 2 3 3 4 4 4 5 5
17 19 22 25 28 30 29 29 29 29 29 30 30 30 30 31 31 32 30 26 23 24 31 32 26 20 10 3 4 4 2 7 13 15 16 16 16 17 17 17 17 16 16 16 16 17 17 17 17 16 15 16 17 16 16 18 20 20 21 22 21 15 11 9 8 7 6 5 5 4 3 3 2 2 1 2 2 2 3 3 4 4 5 6 6
16 17 19 22 25 27 28 28 28 28 28 30 31 31 31 33 33 34 34 31 28 26 29 31 30 28 19 7 5 4 3 6 9 10 15 18 18 18 18 18 18 17 16 16 16 17 18 18 17 16 17 18 17 17 18 19 21 22 23 24 21 16 13 10 9 8 7 7 6 5 4 3 2 2 2 2 2 3 3 3 4 5 6 6 6
14 15 17 19 22 25 26 27 27 27 27 29 30 31 31 33 34 35 36 36 33 27 28 32 32 31 27 18 10 5 5 9 7 3 10 16 17 18 18 19 19 18 17 17 17 18 18 18 18 18 18 19 19 18 19 21 23 24 25 26 23 20 16 14 12 10 9 9 7 6 5 4 3 2 2 2 2 3 3 3 4 5 5 5 5
11 13 15 17 19 21 24 26 26 25 25 27 30 30 31 33 34 36 36 36 35 30 29 34 32 30 32 28 18 8 9 12 7 3 4 8 15 18 18 18 18 19 19 20 19 19 19 18 17 19 19 19 20 20 20 22 23 25 26 26 25 23 20 18 16 14 12 11 9 7 6 5 4 3 3 2 2 3 3 3 4 4 5 5 5
10 11 13 15 16 18 20 23 25 25 24 25 28 29 30 31 32 35 36 36 36 33 32 33 32 31 33 33 24 15 15 15 13 10 6 2 9 13 17 20 20 20 21 22 23 22 21 20 19 19 20 21 22 22 22 22 23 24 25 26 25 24 22 20 20 18 16 14 12 9 7 6 5 4 4 3 2 3 3 3 4 4 4 4 5
10 10 11 13 14 16 17 20 23 25 25 25 26 28 29 30 31 33 35 36 37 35 34 34 35 34 33 32 28 21 18 16 15 14 8 4 5 6 11 15 17 23 25 23 24 24 23 22 21 20 21 23 25 24 24 23 23 23 24 24 23 22 21 20 20 20 19 16 15 12 9 7 6 5 4 4 3 3 3 3 4 4 4 4 4
11 10 10 11 12 14 15 17 19 22 24 25 25 26 28 29 30 31 34 36 36 36 35 34 36 37 35 33 29 22 16 12 13 16 10 6 5 5 12 15 13 20 28 29 26 24 24 23 22 22 23 25 26 26 26 25 24 24 23 23 22 21 20 20 20 20 18 16 15 14 11 9 8 6 5 4 4 4 3 3 3 3 3 3 4
11 11 11 11 11 12 13 15 17 19 22 24 25 26 27 29 29 29 32 34 36 36 35 34 33 35 36 35 33 31 26 19 19 22 14 7 6 4 12 19 16 16 23 30 30 26 25 26 25 24 24 26 28 27 28 27 25 25 23 22 21 21 20 19 19 18 17 15 13 13 12 10 8 6 5 5 5 5 4 3 3 3 2 2 3
11 11 12 12 12 12 12 13 14 16 19 21 23 25 26 27 28 29 29 32 35 36 35 35 33 33 35 36 36 37 36 31 29 30 25 19 13 6 10 17 13 13 18 24 28 29 28 28 28 27 26 27 29 29 29 29 27 26 24 23 21 21 20 18 18 18 17 15 13 12 12 10 8 6 6 7 7 7 5 4 4 3 2 2 1
12 13 13 13 13 13 13 13 13 14 16 18 20 23 25 26 27 28 29 30 32 35 36 36 35 34 34 36 37 37 38 37 33 32 30 26 17 8 11 16 11 10 15 20 25 27 29 31 30 28 28 28 30 31 32 31 29 27 25 24 22 20 19 18 18 18 17 15 14 13 12 10 9 8 9 9 9 8 7 6 5 4 3 2 1
13 14 14 14 14 14 14 14 14 14 14 16 18 20 22 24 26 27 29 30 30 33 36 36 36 36 34 35 36 37 38 38 36 33 30 28 22 13 12 10 8 9 12 19 23 21 24 31 32 30 29 31 32 33 35 34 31 29 27 25 23 21 20 19 18 18 17 16 15 14 13 11 11 10 10 10 9 9 9 7 6 5 5 4 2
13 13 13 13 14 15 15 15 15 16 15 16 17 18 20 22 24 26 28 29 30 31 34 36 37 37 36 34 35 36 37 37 37 36 33 31 30 26 19 10 4 5 7 12 18 21 25 28 30 32 31 32 34 35 35 36 34 31 29 27 25 23 21 20 19 19 18 17 16 15 14 13 12 12 11 11 10 10 10 10 8 8 8 7 5
14 14 13 13 14 14 15 16 17 17 17 16 16 17 19 21 23 25 27 28 29 30 32 34 37 38 38 37 35 34 35 36 37 38 37 35 33 33 30 20 9 4 4 6 9 16 24 24 26 32 34 34 35 36 36 36 35 33 32 30 26 24 23 21 21 20 20 19 18 17 16 14 13 13 12 12 12 12 12 11 11 10 9 8 7
15 15 15 14 13 14 16 18 19 18 18 17 17 17 18 20 22 23 25 27 29 30 30 32 34 36 38 39 38 36 33 32 35 37 38 38 36 35 35 32 22 10 5 6 7 11 21 27 28 30 34 36 36 37 37 37 36 35 34 33 29 26 24 22 22 22 22 21 20 18 16 15 15 14 13 13 13 13 12 12 11 11 10 9 8
19 17 16 15 14 14 16 18 19 19 19 18 17 18 18 20 22 23 24 25 28 30 31 32 33 33 35 38 38 39 37 33 33 35 36 38 37 37 36 38 35 22 10 7 9 15 22 28 31 32 33 37 38 38 39 38 37 36 35 35 32 28 25 23 23 23 23 23 21 19 17 16 16 15 15 14 14 14 13 13 12 12 11 10 9
21 21 19 18 16 15 15 18 19 19 19 18 18 18 18 20 21 23 24 25 27 29 30 31 32 33 34 36 37 38 38 36 35 35 35 36 36 36 35 36 39 35 24 13 7 15 25 29 33 34 33 36 39 39 39 39 38 36 36 36 34 31 27 25 24 25 25 24 22 20 18 17 17 17 17 16 15 15 15 14 14 13 12 11 10
23 22 22 22 20 18 17 17 18 19 20 20 19 18 18 20 21 23 24 25 27 29 30 31 32 32 33 34 36 36 36 36 38 38 37 36 36 35 33 32 35 36 32 21 8 10 22 29 33 35 34 35 37 39 39 39 38 37 36 36 36 34 31 28 26 26 26 25 23 21 19 19 19 19 19 18 17 16 16 16 15 14 13 12 10
23 23 23 23 22 21 20 19 19 19 20 20 20 20 20 20 21 22 24 25 26 28 29 31 31 32 33 34 35 36 35 35 37 39 39 39 38 37 36 32 31 32 31 26 14 8 14 23 28 32 34 35 36 38 39 39 39 37 35 35 36 36 35 32 29 28 28 26 24 23 21 20 20 20 20 19 18 17 17 16 16 15 14 13 12
22 22 22 22 21 21 21 20 20 19 19 19 20 20 21 22 22 23 23 24 26 28 28 30 31 31 33 34 34 34 33 35 37 38 38 39 37 38 39 37 34 33 32 30 22 12 11 18 24 29 32 35 36 38 39 41 41 39 37 36 37 37 37 35 32 30 29 28 26 24 22 21 21 21 21 20 18 18 18 17 17 16 15 14 13
22 22 22 22 22 21 21 20 20 20 20 19 19 19 20 22 23 24 24 25 26 28 29 30 31 31 32 33 33 32 32 34 37 37 37 37 37 37 38 39 37 36 35 33 28 20 16 18 25 30 33 36 38 38 39 41 40 39 38 38 38 38 37 36 34 32 30 29 26 24 23 21 21 22 21 20 19 18 18 18 17 17 16 15 14
21 21 21 22 22 23 22 22 21 21 21 20 19 18 18 20 22 24 25 25 27 28 29 30 30 31 32 33 32 31 31 34 36 36 35 35 35 36 37 38 38 38 37 36 33 28 22 20 25 32 36 38 38 38 38 38 38 39 38 38 38 38 38 37 35 33 31 29 26 25 24 23 22 23 22 21 20 19 19 19 18 17 17 16 15
20 20 20 21 22 23 23 24 23 22 22 21 20 20 19 19 20 22 24 25 27 28 29 29 30 30 32 33 32 30 30 34 35 34 33 34 34 35 37 37 37 37 36 37 37 33 27 24 26 29 33 35 34 34 37 38 36 35 35 36 37 37 37 37 35 34 32 29 27 26 25 24 24 24 24 23 22 21 20 20 19 18 17 16 15
25 24 23 23 23 23 24 24 24 24 23 22 21 21 21 20 20 21 23 24 26 27 29 29 30 31 32 33 32 31 31 34 35 32 31 33 35 36 37 37 36 35 34 36 37 34 31 29 29 29 31 33 31 31 36 39 37 35 34 33 34 35 36 36 35 34 33 31 29 28 27 26 26 26 26 25 24 22 22 21 20 19 18 17 17
29 29 28 28 27 26 26 25 25 26 26 25 23 23 22 21 22 23 24 25 26 27 28 29 30 31 32 32 32 32 33 34 35 33 31 33 34 36 37 37 34 33 33 34 35 34 31 28 28 30 32 33 32 31 34 37 36 34 33 30 29 32 34 35 36 35 33 32 31 30 29 26 26 26 26 25 25 23 22 21 20 19 19 18 17
31 30 30 31 30 29 28 27 27 26 26 27 27 26 24 23 23 24 25 26 27 28 28 29 29 30 31 32 32 32 33 35 35 34 33 33 33 34 36 36 34 33 33 33 31 32 31 27 26 29 30 31 31 28 30 33 31 29 33 33 32 33 34 34 35 35 34 33 32 31 29 27 25 25 25 25 25 23 22 22 21 21 20 19 18
31 31 31 31 31 31 30 30 29 27 26 27 28 28 27 25 25 25 26 28 29 30 31 30 29 29 30 31 32 33 34 35 36 36 36 36 35 36 36 34 33 33 33 32 30 30 29 26 23 25 25 26 29 29 30 35 36 35 37 36 31 31 33 32 32 33 33 33 32 31 30 29 28 27 27 28 27 25 23 23 23 21 20 19 18
32 31 31 31 31 32 32 32 31 29 28 29 29 28 27 27 27 28 28 29 30 32 33 33 32 31 30 30 31 32 33 34 36 36 37 38 39 40 38 35 34 35 34 32 31 30 29 25 23 24 22 22 30 35 36 39 41 37 37 36 30 28 28 24 23 29 32 31 30 31 32 31 29 28 29 31 30 26 24 24 23 22 20 19 19
36 34 33 33 33 33 32 32 32 32 32 32 31 29 28 28 29 30 30 31 32 32 34 34 34 33 32 31 31 31 31 32 34 35 36 38 40 41 41 38 37 38 37 35 33 32 30 27 27 27 25 24 31 37 37 37 39 37 37 37 33 30 27 21 16 21 31 35 32 31 32 31 30 30 31 32 31 28 26 25 23 22 20 20 19
39 38 38 37 36 36 34 33 34 34 35 35 34 31 29 29 31 31 32 33 33 33 34 35 36 35 34 33 32 31 31 31 31 32 34 36 38 39 41 41 41 42 42 40 38 36 33 31 28 28 30 30 31 35 37 37 38 37 36 37 36 34 31 27 21 22 31 39 36 31 30 31 30 31 32 33 32 29 27 25 23 22 21 20 19
39 40 41 41 40 40 38 36 37 37 37 37 36 32 31 32 32 33 34 35 35 35 35 35 36 36 35 34 34 33 32 31 30 31 32 33 34 35 37 40 42 44 45 45 44 42 40 37 33 33 36 34 31 35 40 40 39 38 36 35 36 35 32 32 34 32 34 39 39 30 27 31 32 31 33 33 32 29 26 24 23 23 21 20 19
37 39 40 41 42 42 41 40 41 42 42 43 40 34 32 34 34 34 35 37 37 37 36 36 36 37 37 36 35 35 35 32 30 30 31 31 30 31 32 35 40 43 45 46 46 46 45 44 41 41 41 37 34 37 40 41 42 43 42 39 38 39 38 38 39 37 35 40 42 32 23 27 32 31 32 33 31 28 26 24 24 23 21 19 18
36 37 38 40 41 42 43 43 43 45 48 50 47 39 33 32 33 34 36 37 38 38 38 38 37 37 38 37 37 37 36 35 33 32 30 29 29 29 31 34 37 39 41 44 46 47 46 46 46 46 43 39 37 37 38 43 48 47 45 45 44 43 40 34 29 29 31 37 42 33 20 24 33 32 31 32 30 27 26 24 24 23 20 19 18
38 38 39 40 40 42 43 43 43 45 50 54 53 49 42 35 32 34 36 37 38 38 39 39 38 38 38 38 38 38 38 37 37 36 33 31 29 30 32 33 34 35 38 42 44 45 46 46 47 47 45 41 39 36 37 42 47 45 38 35 36 35 29 21 18 23 29 34 40 35 23 23 32 32 27 27 26 25 25 25 23 22 20 19 18
38 39 40 41 41 42 44 44 44 45 49 52 54 54 50 42 36 36 36 37 38 39 39 40 39 38 39 39 38 38 39 38 37 37 36 32 31 32 33 33 33 33 37 41 41 41 44 47 48 47 46 44 42 41 39 41 45 45 37 30 32 33 26 16 13 19 27 31 37 37 26 23 30 31 24 22 24 25 25 24 23 22 20 19 18
38 40 40 41 43 44 44 45 45 44 47 52 52 51 50 46 42 41 39 37 37 38 39 40 40 39 40 41 40 39 39 39 38 38 36 33 32 33 34 33 31 33 38 39 35 34 37 41 44 46 45 43 42 42 42 42 46 49 46 39 37 35 28 20 15 17 21 29 38 38 26 22 28 30 24 19 19 24 25 24 23 22 20 19 18
38 40 40 40 42 44 43 44 45 44 46 50 50 47 46 45 44 43 40 37 37 38 39 39 39 39 39 41 41 41 41 41 40 39 38 36 34 35 35 32 29 34 40 36 30 29 32 35 39 41 40 39 38 39 40 42 45 51 53 48 44 41 34 28 23 18 12 19 35 38 26 23 29 32 27 19 9 15 23 23 21 21 19 18 18
Wind_Direction
211 215 214 213 216 217 215 207 202 204 207 205 205 212 213 215 217 206 206 213 213 210 207 209 213 216 218 219 221 222 225 230 239 259 277 295 330 317 283 171 169 167 147 130 143 161 155 155 148 149 146 135 119 114 130 119 100 92 81 76 71 68 71 73 80 78 72 70 69 74 78 83 85 81 78 79 81 83 87 93 94 96 95 100 105
210 214 215 211 210 210 209 205 200 203 211 206 202 212 212 211 214 208 210 215 214 212 211 210 213 217 217 220 223 222 225 226 235 246 259 275 286 281 262 192 164 172 162 137 125 142 149 156 150 156 157 149 129 117 142 132 103 95 89 81 74 66 69 74 81 77 66 67 68 74 81 82 81 76 72 72 74 75 77 80 82 84 81 86 98
209 213 215 210 205 205 205 203 200 204 212 207 203 211 213 211 212 210 213 216 215 214 213 212 213 217 218 220 222 223 226 226 229 236 246 259 261 233 211 192 172 174 179 159 143 136 146 160 158 169 170 168 160 137 150 147 119 106 99 88 80 67 70 78 81 79 72 73 75 79 83 81 76 72 69 68 68 69 70 71 71 71 69 71 80
208 212 212 208 205 205 203 201 201 204 209 207 206 212 213 213 213 212 214 214 215 213 213 215 214 216 217 218 222 224 226 226 225 225 234 243 241 215 184 181 177 175 186 181 171 166 167 165 158 166 176 177 181 168 166 169 157 138 122 106 93 72 74 86 87 86 82 80 83 86 85 80 76 71 68 64 62 63 63 66 66 66 66 64 65
207 210 210 208 206 205 203 201 202 204 207 206 208 212 211 211 211 209 209 209 210 208 208 213 215 216 216 217 220 223 226 226 225 219 217 218 211 205 181 178 181 180 189 192 194 191 182 172 154 147 172 175 177 179 176 176 175 166 148 133 118 93 88 97 100 95 90 90 90 91 87 81 77 70 64 60 57 56 57 60 62 62 62 62 61
207 209 210 209 208 206 205 203 203 205 206 207 209 210 208 207 206 204 203 204 207 204 203 208 212 214 214 216 219 221 223 223 225 216 201 193 191 195 180 176 182 184 192 197 204 201 189 182 162 148 165 162 150 168 175 177 179 173 164 147 135 124 110 107 109 105 98 95 94 93 87 83 79 70 64 58 56 56 55 58 59 59 60 60 59
208 210 209 210 209 207 207 205 205 207 208 210 211 209 208 207 206 202 198 200 205 202 201 206 209 212 212 211 215 218 216 215 222 214 197 190 187 185 176 182 188 186 194 199 202 203 197 195 180 166 170 161 140 147 168 177 182 179 175 160 147 138 130 124 119 115 110 104 101 96 89 85 79 71 66 61 57 55 53 55 54 54 56 57 58
209 213 211 211 211 209 209 208 207 208 210 211 212 210 208 208 207 204 200 198 202 201 200 206 207 209 210 206 210 214 212 216 223 214 199 195 194 190 187 195 200 193 198 202 203 208 205 200 190 178 174 165 148 144 168 183 187 185 180 172 164 151 144 138 130 125 118 113 110 101 96 91 80 72 66 57 51 48 47 47 45 47 50 52 55
211 216 214 213 214 212 210 209 209 210 211 212 212 212 210 209 208 207 206 202 202 200 197 202 204 203 201 202 207 207 212 222 224 215 203 200 203 204 202 206 208 202 206 209 206 209 207 201 196 190 183 175 165 160 168 181 189 191 186 181 175 163 155 146 139 141 130 118 117 110 106 96 80 70 62 54 50 47 47 47 48 49 49 50 51
214 217 217 215 215 214 213 212 212 211 212 213 213 211 210 212 209 207 208 207 204 200 196 197 198 196 195 199 205 199 206 220 222 217 207 207 214 216 215 214 212 208 210 216 213 207 207 206 205 204 198 193 188 178 174 176 179 188 190 185 180 169 162 155 149 151 146 133 129 117 109 99 83 74 63 59 57 53 55 52 51 52 51 52 50
218 218 218 216 214 215 216 215 214 213 213 214 212 209 209 211 211 207 206 208 210 204 197 195 192 193 194 194 198 196 201 212 218 219 213 215 219 221 222 220 217 214 213 219 220 212 209 210 211 211 208 204 199 190 184 180 175 181 190 188 182 175 168 163 158 160 159 152 144 134 120 112 102 93 79 72 64 59 60 55 54 54 53 55 53
220 220 219 217 216 217 217 217 217 215 214 214 212 210 210 210 211 209 202 202 208 204 198 194 184 178 185 190 192 195 202 209 211 211 214 219 220 219 223 223 220 218 218 220 223 219 213 215 217 215 214 211 206 201 197 191 185 181 185 191 185 178 175 168 165 170 171 167 158 151 135 129 128 111 88 80 68 61 61 57 57 54 53 53 52
223 222 221 220 219 219 218 218 218 217 218 219 217 216 214 212 211 210 204 197 196 198 198 191 174 159 165 185 196 202 208 209 207 208 214 221 224 222 221 224 224 220 221 223 223 222 218 219 222 219 218 218 216 213 208 205 202 190 183 188 185 181 181 179 182 182 176 175 168 161 153 149 149 126 90 78 65 62 63 62 61 55 56 55 53
227 225 225 224 223 222 221 222 221 219 220 222 221 218 216 214 210 208 206 201 197 196 195 189 177 171 165 155 184 216 220 214 211 215 220 224 225 220 218 223 225 222 222 224 224 223 221 220 224 224 220 221 222 220 214 210 208 200 189 182 181 187 193 191 191 187 180 176 168 166 165 162 161 136 110 93 74 75 80 72 69 63 61 60 55
235 231 229 228 227 226 225 226 225 222 220 219 218 216 215 213 211 210 205 202 201 199 198 197 187 173 161 155 178 183 234 228 218 218 220 221 218 214 217 222 225 225 225 226 225 224 223 221 224 225 219 220 224 220 215 209 205 203 195 183 178 183 192 195 189 181 181 177 169 172 173 167 169 153 118 109 92 86 88 79 75 70 63 62 57
245 240 237 234 231 229 228 228 228 226 224 222 219 216 215 213 212 212 206 199 199 200 203 204 196 181 164 138 159 158 243 224 209 212 215 217 215 213 217 221 222 224 225 228 229 226 225 224 224 223 217 218 223 219 213 209 204 203 199 191 187 183 180 182 182 175 176 178 173 177 178 173 178 169 141 126 108 98 93 79 72 68 63 59 55
253 250 246 242 238 234 231 230 230 229 227 226 224 222 220 216 213 212 208 204 202 200 202 205 205 203 197 172 145 188 229 178 178 204 211 212 216 217 221 224 225 225 224 227 230 228 227 226 223 220 215 217 222 219 212 210 207 205 202 199 201 202 195 186 186 185 185 185 177 177 186 186 184 174 148 129 114 106 98 79 64 61 59 55 51
257 255 253 249 245 240 235 233 233 232 229 229 229 226 223 220 217 213 211 210 207 201 200 205 208 209 209 209 207 207 176 152 144 182 209 214 218 219 224 228 229 229 225 224 226 229 229 227 223 220 214 214 221 220 214 212 211 209 208 208 212 218 219 214 207 200 199 198 184 178 187 186 182 175 147 128 117 107 95 77 65 59 57 54 50
265 259 256 254 251 246 241 238 237 237 234 231 230 229 227 225 222 218 215 213 209 204 202 205 208 209 211 216 222 219 182 169 167 151 175 221 222 219 224 228 230 231 227 223 224 228 230 228 223 220 215 211 218 222 219 217 216 214 214 216 220 225 229 229 221 210 207 204 189 178 185 184 178 172 148 131 118 106 94 81 72 64 60 58 52
284 271 263 259 256 252 247 243 240 241 240 237 234 233 232 229 226 223 219 216 213 210 208 205 207 210 211 215 226 227 200 186 190 182 149 172 213 216 223 225 228 230 227 226 226 228 229 228 224 221 217 211 215 224 224 221 220 219 219 221 225 228 230 230 226 220 216 208 192 178 182 186 181 171 153 138 128 112 98 89 78 70 65 58 50
297 289 276 266 263 259 253 248 244 243 243 242 240 237 235 233 231 227 223 220 218 216 215 211 210 212 211 215 223 224 209 199 198 191 172 155 180 203 209 211 226 231 227 226 227 229 228 229 227 223 219 213 214 223 226 224 221 219 220 222 225 228 228 227 226 225 224 219 203 186 183 189 184 170 155 145 137 126 109 101 88 72 63 55 44
298 299 293 280 272 267 262 256 251 249 246 245 245 242 240 238 237 234 229 225 223 221 220 219 217 216 214 213 213 212 208 208 205 200 195 179 176 189 189 186 206 225 223 222 223 227 227 228 227 223 219 214 215 221 224 224 222 218 218 221 223 227 227 226 227 227 227 225 215 201 196 197 191 173 158 151 148 139 121 109 98 81 67 54 42
300 298 299 295 286 278 272 266 260 255 251 249 248 247 245 242 241 240 235 230 227 226 225 225 224 221 218 215 212 210 207 207 206 201 198 182 163 175 191 192 201 215 218 219 220 223 225 227 227 224 220 216 215 220 224 225 221 217 217 219 222 225 227 227 227 229 229 225 221 215 212 212 205 185 167 160 159 153 137 125 112 95 80 63 46
320 308 302 297 292 288 283 277 271 265 259 256 253 251 250 247 244 243 242 237 232 230 229 229 228 225 222 220 219 218 216 215 212 207 206 201 185 171 183 188 203 223 218 213 215 220 223 224 225 224 222 219 216 217 222 225 221 215 215 217 219 223 225 227 226 228 230 227 225 223 224 227 222 206 191 181 176 170 161 154 140 121 114 102 64
334 328 320 309 296 290 289 286 284 279 272 267 262 257 254 251 248 247 246 244 238 234 233 232 232 230 228 225 223 223 223 223 221 217 215 208 196 177 179 184 188 206 208 203 205 214 220 223 225 223 221 220 218 217 220 224 222 215 213 215 217 220 222 224 225 226 228 226 226 227 229 231 228 219 208 198 195 187 176 173 164 151 150 139 112
332 329 329 324 310 296 290 290 290 288 281 274 270 265 259 255 253 250 249 249 245 241 238 237 236 236 234 232 228 226 226 226 224 223 220 212 204 186 173 185 186 171 185 197 196 200 213 220 223 222 221 220 219 218 219 222 222 216 212 214 215 217 219 221 223 225 227 225 224 226 229 229 227 224 214 208 211 202 187 182 177 177 178 170 170
331 325 321 321 319 307 293 290 293 290 285 279 274 270 265 260 257 254 253 253 251 248 244 241 240 240 238 237 235 231 229 228 226 226 224 219 216 204 182 166 175 175 181 194 197 205 212 213 217 221 221 219 219 220 220 222 222 217 212 213 214 215 217 219 221 223 224 223 223 225 227 226 225 223 216 212 214 209 199 193 191 195 197 194 192
336 330 323 318 316 310 300 295 295 293 289 285 279 274 269 264 261 259 257 255 254 253 250 247 244 243 242 241 241 238 234 231 229 229 227 225 225 218 201 183 177 191 200 200 206 220 219 209 209 219 221 219 218 219 222 223 222 217 213 212 214 215 216 218 219 221 222 220 220 222 224 224 223 221 217 214 213 211 208 206 207 210 209 206 198
352 343 334 325 316 308 302 298 297 295 293 290 285 280 275 269 265 263 261 259 257 256 255 253 249 247 246 245 245 244 241 236 233 231 230 228 227 224 215 203 197 192 183 207 213 216 217 210 208 214 217 217 218 217 220 224 223 218 214 213 213 214 216 220 220 220 219 217 216 218 220 221 222 222 219 216 214 213 212 214 218 220 216 213 204
7 0 350 341 331 319 311 307 304 300 297 295 291 286 280 275 270 267 265 262 260 258 258 257 255 252 250 248 247 247 245 242 239 235 232 231 229 227 224 215 210 207 191 194 218 212 207 207 211 215 213 213 216 217 218 223 224 219 216 215 215 215 216 220 224 223 220 218 216 216 217 221 222 223 222 219 218 217 215 217 222 223 221 219 213
11 9 5 358 349 337 325 317 313 309 304 301 298 293 286 280 275 272 270 266 263 261 260 259 258 256 254 252 250 248 247 245 244 241 236 234 231 229 229 221 216 215 206 192 219 219 205 205 212 217 216 213 212 214 217 222 224 221 217 217 217 218 218 220 225 227 223 220 220 217 217 222 223 223 223 221 221 221 220 223 226 226 227 227 220
10 9 8 5 1 354 345 333 324 317 312 307 303 298 292 285 279 275 274 271 267 265 264 262 260 257 255 254 252 250 249 247 245 244 241 239 236 233 232 226 219 219 213 203 210 220 210 213 215 215 216 213 210 212 215 219 222 222 219 218 219 220 222 222 225 228 227 224 223 221 220 223 224 223 223 222 221 222 224 226 229 230 231 231 224
11 10 8 5 3 360 356 350 341 331 323 316 311 305 298 291 285 280 277 273 269 268 268 265 262 258 256 255 254 252 251 249 247 246 244 242 241 239 238 235 228 222 216 210 211 208 205 213 216 213 212 209 208 211 214 215 219 219 218 219 221 223 224 224 225 229 230 227 225 223 222 223 225 224 222 222 220 221 224 227 230 232 232 230 227
7 7 6 4 2 360 358 355 350 343 335 328 321 313 305 297 291 286 281 276 272 270 269 266 264 262 259 256 255 254 252 250 248 247 245 243 242 241 240 240 236 230 223 216 213 204 189 199 205 206 206 206 206 210 213 215 217 216 215 216 219 222 225 225 226 229 231 231 229 227 224 223 225 225 223 222 221 220 224 227 230 232 232 229 229
357 357 357 357 356 356 356 354 351 348 343 337 330 321 311 302 294 288 283 278 275 273 270 268 266 264 261 258 256 254 252 251 250 248 246 244 242 241 240 239 238 236 230 224 218 209 192 190 196 196 198 202 207 210 213 216 217 216 214 215 217 220 222 223 226 229 231 233 232 231 228 225 225 226 225 222 221 222 225 227 230 233 233 230 230
345 346 345 346 346 346 348 349 350 349 346 342 336 327 317 307 298 291 286 281 277 274 271 270 269 266 263 260 258 256 253 251 250 248 246 245 242 241 240 239 237 236 233 229 226 219 202 189 194 197 197 200 205 209 209 211 215 216 215 214 215 218 220 222 225 228 231 233 234 233 231 228 226 227 226 222 221 224 227 228 230 234 236 234 232
331 333 335 336 337 337 338 340 341 342 342 340 336 331 324 314 305 297 291 286 281 277 274 273 271 268 264 261 260 258 254 251 250 248 245 244 243 242 241 239 237 235 233 230 229 225 212 197 192 196 198 198 201 205 206 205 207 212 215 216 216 217 219 221 224 226 229 231 233 233 232 230 228 227 226 223 221 224 227 230 232 235 237 237 235
328 328 328 328 329 330 330 330 331 332 333 332 330 328 325 320 312 304 297 292 286 280 277 275 274 271 266 263 261 258 254 252 251 250 246 243 243 242 241 241 239 236 233 230 228 226 220 207 194 190 194 197 196 199 204 205 202 203 207 211 216 218 218 220 222 224 227 230 231 231 230 229 228 226 225 222 220 222 226 229 232 236 238 237 235
328 327 325 324 323 323 323 323 323 323 323 323 322 322 321 318 313 308 302 297 291 285 280 277 276 273 269 265 263 258 255 254 253 252 249 245 243 241 240 240 239 236 234 232 228 224 221 211 196 191 192 195 196 198 201 203 203 202 199 198 206 214 217 219 221 222 224 226 229 230 230 230 229 228 227 223 219 220 225 228 231 233 234 234 233
325 324 322 320 319 318 318 317 316 316 315 314 314 314 313 312 309 306 303 299 295 290 286 283 278 275 271 268 265 262 258 257 256 254 251 248 245 243 241 239 236 235 234 233 229 224 221 212 200 195 190 189 193 193 192 192 196 201 201 199 202 206 210 216 220 222 223 223 225 228 230 230 229 228 227 223 219 220 223 226 228 228 228 229 229
320 319 318 317 315 314 313 312 310 309 306 305 307 307 305 304 303 301 299 297 294 291 289 287 283 278 274 270 267 265 263 261 259 257 254 251 247 245 244 239 234 232 233 232 229 223 220 215 204 194 187 187 189 184 182 189 194 199 202 204 207 207 207 211 217 221 223 222 222 224 227 228 227 226 222 219 218 220 223 226 225 223 222 223 225
315 315 314 313 311 310 309 308 305 302 299 297 299 299 297 296 296 295 294 292 291 290 288 286 285 282 277 273 269 267 266 264 262 260 257 254 250 248 246 241 235 230 228 228 227 223 220 217 207 194 188 193 193 188 189 194 196 198 198 199 203 203 201 204 215 222 223 222 220 221 225 225 224 223 221 219 219 221 224 225 223 219 218 221 224
312 313 312 309 308 306 305 303 300 297 294 294 294 292 289 289 290 289 288 288 287 286 284 282 282 282 280 278 274 270 266 264 263 261 259 256 253 250 248 244 239 235 229 224 224 222 220 220 215 203 198 203 201 196 196 195 193 195 196 196 197 194 190 193 205 215 219 218 216 217 221 221 221 221 221 221 220 220 223 224 220 217 218 219 223
309 310 310 308 306 304 302 299 296 293 291 291 290 286 281 281 283 283 282 282 282 281 279 278 278 278 279 279 277 273 268 264 262 261 259 258 256 253 251 247 243 241 236 230 226 222 219 222 222 214 210 211 205 200 199 195 192 194 197 198 198 194 192 195 199 205 212 213 209 210 215 217 217 218 220 222 220 218 222 223 217 216 217 218 222
304 305 306 305 304 303 301 298 295 292 290 289 286 281 276 276 277 278 277 276 277 277 275 273 273 274 274 275 275 274 271 267 263 260 258 258 257 255 254 250 246 244 241 237 234 229 224 222 223 223 221 216 209 206 203 197 191 191 194 198 199 197 196 201 205 207 208 206 201 200 208 212 212 214 217 220 219 216 219 219 215 214 215 217 221
299 300 301 301 300 299 298 296 295 292 290 289 286 279 274 273 273 274 274 274 274 273 271 269 269 269 269 269 269 271 272 269 265 261 257 256 255 253 252 250 248 246 243 240 237 234 230 225 224 228 228 223 218 215 209 201 197 197 197 198 199 200 203 208 211 210 206 203 199 196 200 207 207 210 214 216 215 214 216 217 213 212 213 215 219
295 295 295 295 295 294 293 292 292 290 288 287 286 282 275 272 271 271 272 272 271 270 269 267 266 265 266 265 265 265 267 267 266 263 258 255 253 251 249 247 247 246 244 241 238 236 233 230 228 230 231 229 226 223 214 207 207 207 206 205 204 203 204 206 206 202 199 200 198 192 191 200 202 205 212 214 213 213 215 214 210 209 212 216 219
292 291 290 289 289 289 289 288 287 285 284 284 284 283 280 276 272 271 271 270 269 268 267 267 265 264 264 263 261 262 262 263 264 264 260 255 252 249 247 245 245 244 244 244 242 238 236 235 234 234 233 231 231 229 222 215 211 210 208 208 205 200 195 189 184 187 190 194 197 194 187 190 196 200 207 210 209 210 211 211 208 208 212 216 220
290 289 287 287 286 285 285 285 282 280 280 281 281 281 281 280 277 274 271 268 266 265 265 266 265 264 264 262 260 259 259 259 261 262 261 256 250 247 246 245 243 243 245 245 243 241 239 238 238 238 237 235 233 232 229 223 216 209 202 200 200 193 186 181 180 184 186 189 194 195 188 181 190 195 195 197 203 205 207 210 210 209 214 219 221
289 288 287 286 284 283 281 280 279 277 277 278 278 278 279 279 279 278 275 271 267 263 263 264 264 263 263 263 260 258 257 258 258 259 258 254 248 245 245 244 242 241 244 244 241 239 239 238 238 239 238 236 233 232 230 226 220 210 204 203 200 190 187 194 188 176 184 192 194 192 185 176 183 186 180 177 194 206 208 214 217 215 217 219 218
290 289 287 285 283 281 280 278 277 276 276 276 276 276 277 279 279 279 278 275 271 267 264 263 262 261 260 260 260 258 257 258 258 257 256 251 246 244 244 242 240 242 243 241 237 234 234 233 234 235 235 234 231 230 228 224 219 213 210 209 202 193 194 196 182 164 176 202 196 189 182 174 176 180 176 165 176 214 214 214 216 213 211 210 209